[[{"header":{"parameterUnit":"m.s-1","parameterCategory":1,"la1":30.2991,"la2":30.254,"lo1":-89.0895,"lo2":-89.0444,"dy":0.0017,"dx":0.0017,"nx":28,"ny":28,"refTime":"2023-10-08T09:00:00:Z","depth":0,"parameterNumber":2,"parameterNumberName":"U-component_of_WINDS"},"data":[0,0,0,0,0,0,0,0,0,0,0,0,0,0,0,0,0,0,0,0,0,0,0,0,0,0,0,0,0,0,0,0,0,0,0,0,0,0,0,0,0,0,0,0,0,0,0,0,0,0,0,0,0,0,0,0,0,0,1.8102,1.8102,0,1.8147,1.8148,1.8148,1.8157,1.8157,1.8157,1.8156,1.8202,1.8204,1.8205,0,0,0,0,0,0,0,0,0,0,0,0,0,1.8023,1.8024,1.8102,1.8102,1.8103,1.8147,1.8148,1.8148,1.8158,1.8157,1.8157,1.8156,1.8202,1.8204,1.8205,0,0,0,0,0,0,0,0,0,0,0,0,0,1.8061,1.8024,1.8102,1.8113,1.8114,1.8147,1.8148,1.8149,1.8158,1.8157,1.8157,1.8156,1.8201,1.8203,1.8206,1.823,0,0,1.8213,1.8214,0,0,0,0,0,0,0,0,1.8059,1.8064,1.8111,1.8112,1.8114,1.8146,1.8137,1.8176,1.8158,1.8141,1.8156,1.8156,1.8184,1.8188,1.8197,1.8232,1.8234,1.8213,1.8214,1.8215,1.8216,0,0,0,0,0,0,0,1.8056,1.8062,1.812,1.8111,1.8113,1.8115,1.812,1.8144,1.8165,1.8143,1.8143,1.8149,1.8185,1.8195,1.8198,1.8235,1.8213,1.8215,1.8216,1.8217,1.8292,1.8293,0,0,0,0,0,0,1.8052,1.806,1.8118,1.8121,1.8085,1.8117,1.8123,1.8136,1.8165,1.8169,1.8149,1.8149,1.8191,1.8196,1.82,1.823,1.8215,1.8218,1.8219,1.8292,1.8292,1.8293,0,0,0,0,0,0,1.805,1.8057,1.8117,1.8091,1.8099,1.8119,1.8134,1.8137,1.8148,1.817,1.8173,1.8156,1.8191,1.8197,1.8223,1.8232,1.8219,1.8221,1.8291,1.8292,1.8293,1.8291,0,0,0,0,0,0,1.8048,1.8056,1.8066,1.8091,1.81,1.8139,1.8135,1.8139,1.8152,1.8152,1.8177,1.818,1.8191,1.8219,1.8225,1.8235,1.8222,1.829,1.8291,1.8292,1.8291,1.8292,1.8294,0,0,0,0,0,1.8045,1.8064,1.8066,1.8073,1.8113,1.8139,1.8144,1.8156,1.8153,1.8162,1.8176,1.818,1.823,1.8222,1.8228,1.8239,1.829,1.8291,1.8292,1.829,1.8292,1.8293,0,0,0,0,0,0,1.8039,1.8067,1.8071,1.8098,1.8116,1.8141,1.8153,1.8158,1.8177,1.8177,1.8191,1.8196,1.8221,1.8233,1.8223,1.8264,1.826,1.8263,1.8256,1.8258,1.8259,1.8255,1.8224,0,0,0,0,0,1.8041,1.806,1.8084,1.8106,1.8115,1.8132,1.8144,1.8152,1.8172,1.8179,1.8195,1.8213,1.8233,1.8246,1.8266,1.8293,1.8298,1.8303,1.8305,1.8306,1.8308,1.8323,1.8325,1.8298,1.8298,1.8298,0,0,1.8045,1.8063,1.8074,1.8105,1.812,1.814,1.8139,1.816,1.8174,1.8182,1.8208,1.822,1.8241,1.8268,1.828,1.8278,1.8317,1.8308,1.8308,1.831,1.8324,1.8327,1.8329,1.8299,1.8298,1.8298,0,0,1.8062,1.8078,1.8098,1.8113,1.8136,1.8147,1.8152,1.8176,1.8185,1.821,1.8217,1.8234,1.8268,1.8283,1.8295,1.8318,1.8322,1.8324,1.8331,1.8346,1.8348,1.835,1.8358,1.836,1.8327,1.8327,1.8327,0,1.8064,1.8094,1.8107,1.8128,1.8141,1.815,1.817,1.8184,1.8212,1.822,1.8218,1.8261,1.8276,1.8306,1.8312,1.8321,1.8327,1.8321,1.8346,1.8349,1.8351,1.8358,1.8361,1.8327,1.8327,1.8327,1.8327,0,1.8096,1.8116,1.813,1.8157,1.8172,1.8192,1.8208,1.8221,1.8228,1.8239,1.8265,1.8284,1.8307,1.8315,1.8321,1.8345,1.8343,1.8344,1.8339,1.8353,1.836,1.8363,1.8327,1.8327,1.8327,1.8327,0,0,1.811,1.8144,1.8149,1.8161,1.8187,1.8203,1.8224,1.8247,1.8258,1.8277,1.8294,1.8323,1.8323,1.8337,1.8345,1.8358,1.8374,1.8356,1.8357,1.8359,1.8401,1.8401,1.8404,1.8377,1.8378,1.8378,1.8399,0,1.813,1.8167,1.818,1.8211,1.823,1.8238,1.8256,1.8274,1.8285,1.8303,1.8316,1.8336,1.8335,1.8343,1.8356,1.8369,1.8383,1.8368,1.8393,1.8393,1.8387,1.8408,1.8408,1.8427,1.8403,1.8403,1.8403,0,1.8159,1.8178,1.8211,1.8234,1.8243,1.8259,1.8281,1.8298,1.8318,1.8325,1.8341,1.8348,1.8369,1.8364,1.8393,1.8383,1.8394,1.8402,1.8403,1.8406,1.8399,1.8411,1.8433,1.8436,1.8408,1.8408,1.8407,0,1.8165,1.82,1.8224,1.8235,1.8263,1.8273,1.8286,1.8305,1.8318,1.8337,1.8346,1.8367,1.8379,1.8395,1.8408,1.8403,1.8436,1.8432,1.8443,1.8442,1.8449,1.8448,1.8473,1.8457,1.8456,1.8456,1.8456,0,1.8186,1.8206,1.8228,1.8242,1.8265,1.8279,1.83,1.8312,1.833,1.8347,1.8355,1.8371,1.8387,1.8405,1.8415,1.8438,1.8443,1.8449,1.8452,1.8448,1.8448,1.8455,1.8454,1.8457,1.8457,1.8457,1.8457,0,1.8197,1.8213,1.824,1.8264,1.8271,1.8286,1.8307,1.8321,1.8333,1.8355,1.836,1.8379,1.84,1.8415,1.8442,1.8449,1.8473,1.8476,1.8467,1.8468,1.8478,1.8476,1.8508,1.8513,1.8493,1.8493,1.8494,0,1.821,1.8225,1.8251,1.8264,1.8276,1.8295,1.8309,1.8323,1.8337,1.8361,1.8372,1.8394,1.8412,1.8446,1.8462,1.8483,1.8485,1.8495,1.8488,1.8484,1.8485,1.8484,1.8485,1.8496,1.8496,1.8496,1.8496,0,1.8229,1.8236,1.8256,1.8278,1.8294,1.8312,1.833,1.8339,1.8357,1.8371,1.8393,1.8408,1.8436,1.8457,1.8479,1.8491,1.8497,1.8498,1.8502,1.8498,1.8492,1.8495,1.8469,1.8497,1.8497,1.8497,1.8497,1.8497,1.8241,1.8255,1.8276,1.8297,1.8312,1.8329,1.8344,1.8358,1.8377,1.8401,1.8408,1.8431,1.845,1.8481,1.8493,1.8511,1.851,1.8515,1.8516,1.8517,1.8517,1.849,1.8515,1.8515,1.8515,1.8515,1.8515,0,1.8261,1.8275,1.8295,1.832,1.8336,1.834,1.836,1.8374,1.8394,1.8412,1.843,1.8455,1.8476,1.8493,1.8515,1.8526,1.8529,1.8531,1.853,1.8533,1.8517,1.8512,1.8528,1.8528,1.8528,1.8528,1.8528,1.8528,1.8274,1.8297,1.8307,1.8338,1.8352,1.8375,1.8386,1.8401,1.8415,1.8443,1.8461,1.8472,1.849,1.8513,1.8532,1.8536,1.8544,1.8545,1.855,1.8535,1.8534,1.8532,1.8527,1.8547,1.8547,1.8564,1.8564,1.8565]},{"header":{"parameterUnit":"m.s-1","parameterCategory":1,"la1":30.2991,"la2":30.254,"lo1":-89.0895,"lo2":-89.0444,"dy":0.0017,"dx":0.0017,"nx":28,"ny":28,"refTime":"2023-10-08T09:00:00:Z","depth":0,"parameterNumber":3,"parameterNumberName":"V-component_of_WINDS"},"data":[0,0,0,0,0,0,0,0,0,0,0,0,0,0,0,0,0,0,0,0,0,0,0,0,0,0,0,0,0,0,0,0,0,0,0,0,0,0,0,0,0,0,0,0,0,0,0,0,0,0,0,0,0,0,0,0,0,0,3.0937,3.0937,0,3.0908,3.0908,3.0908,3.0919,3.0919,3.092,3.0921,3.0885,3.0883,3.0882,0,0,0,0,0,0,0,0,0,0,0,0,0,3.0997,3.0996,3.0937,3.0937,3.0937,3.0908,3.0908,3.0908,3.0918,3.0919,3.092,3.0921,3.0885,3.0884,3.0882,0,0,0,0,0,0,0,0,0,0,0,0,0,3.097,3.0995,3.0937,3.0939,3.0939,3.0909,3.0908,3.0907,3.0918,3.0919,3.092,3.0921,3.0886,3.0884,3.0881,3.0846,0,0,3.0874,3.0873,0,0,0,0,0,0,0,0,3.0971,3.0967,3.0939,3.0939,3.0939,3.0918,3.0916,3.0887,3.0918,3.0926,3.0921,3.0922,3.0895,3.0892,3.0884,3.0845,3.0843,3.0874,3.0872,3.0871,3.0871,0,0,0,0,0,0,0,3.0973,3.0969,3.0926,3.0939,3.0938,3.0939,3.0936,3.091,3.0905,3.0925,3.0926,3.0923,3.0895,3.0886,3.0883,3.0842,3.0874,3.0872,3.087,3.0869,3.0772,3.0771,0,0,0,0,0,0,3.0976,3.097,3.0927,3.0925,3.0958,3.0937,3.0934,3.0924,3.0905,3.0903,3.0922,3.0923,3.089,3.0886,3.0882,3.0839,3.0871,3.0869,3.0868,3.0773,3.0772,3.077,0,0,0,0,0,0,3.0977,3.0972,3.0928,3.0948,3.0942,3.0935,3.0923,3.0923,3.0914,3.0903,3.0901,3.0914,3.089,3.0885,3.0855,3.0838,3.0868,3.0866,3.0774,3.0772,3.0771,3.0753,0,0,0,0,0,0,3.0979,3.0972,3.096,3.0948,3.0941,3.0903,3.0922,3.0921,3.0911,3.0912,3.0895,3.0893,3.0891,3.0859,3.0853,3.0835,3.0864,3.0776,3.0774,3.0771,3.0755,3.0751,3.0747,0,0,0,0,0,3.0981,3.0955,3.0959,3.0954,3.0926,3.0902,3.0899,3.0898,3.0909,3.0896,3.0889,3.0894,3.0841,3.0856,3.0849,3.083,3.0777,3.0774,3.0772,3.0757,3.0752,3.0747,0,0,0,0,0,0,3.0964,3.0953,3.0958,3.0928,3.0916,3.0904,3.0888,3.0892,3.0876,3.0878,3.0876,3.0872,3.0841,3.0832,3.0849,3.0795,3.081,3.0806,3.0801,3.0796,3.0792,3.0794,3.0862,0,0,0,0,0,3.0957,3.094,3.0931,3.0905,3.09,3.0895,3.0884,3.0885,3.0872,3.0866,3.0857,3.0842,3.0822,3.0809,3.079,3.0754,3.075,3.0738,3.0734,3.0731,3.0727,3.0706,3.0701,3.0762,3.0762,3.0762,0,0,3.0941,3.0934,3.0923,3.0902,3.0893,3.0874,3.089,3.0869,3.0855,3.0862,3.0834,3.0826,3.081,3.0777,3.0762,3.0769,3.0709,3.0728,3.0725,3.0723,3.0703,3.0697,3.0692,3.076,3.076,3.076,0,0,3.0904,3.0897,3.0875,3.0866,3.0853,3.085,3.0844,3.0832,3.0828,3.0799,3.0805,3.0786,3.0752,3.074,3.0729,3.0688,3.0691,3.0681,3.066,3.064,3.0635,3.0631,3.0615,3.0609,3.0678,3.0678,3.0678,0,3.0886,3.086,3.0862,3.0841,3.0831,3.0839,3.0815,3.0806,3.0786,3.0778,3.0787,3.0745,3.0734,3.0698,3.0688,3.0679,3.0671,3.0683,3.0636,3.0632,3.0628,3.0613,3.0607,3.0676,3.0677,3.0677,3.0677,0,3.0838,3.0819,3.0802,3.0785,3.0773,3.0751,3.0748,3.0735,3.0737,3.0732,3.0703,3.0691,3.0669,3.0661,3.0661,3.0624,3.0629,3.0637,3.0653,3.0621,3.0606,3.0601,3.0675,3.0675,3.0675,3.0676,0,0,3.0787,3.0773,3.0767,3.0759,3.0745,3.073,3.0707,3.0688,3.0677,3.0663,3.0643,3.0614,3.0622,3.0609,3.0609,3.0591,3.0558,3.0601,3.0601,3.0593,3.0515,3.0508,3.0501,3.0561,3.056,3.0559,3.0516,0,3.0748,3.0711,3.0712,3.0676,3.0658,3.0666,3.0646,3.0635,3.063,3.0612,3.0606,3.0586,3.0598,3.059,3.0574,3.0566,3.0542,3.0569,3.054,3.0539,3.0543,3.0494,3.0487,3.0447,3.051,3.0509,3.0509,0,3.0697,3.0684,3.0647,3.0636,3.0628,3.061,3.0593,3.0577,3.0563,3.0561,3.0548,3.055,3.0525,3.0542,3.0507,3.0525,3.0513,3.0507,3.0506,3.0502,3.0521,3.0488,3.0434,3.0428,3.05,3.0501,3.0501,0,3.0663,3.0635,3.061,3.0603,3.059,3.0577,3.057,3.0558,3.0546,3.053,3.0523,3.0503,3.0492,3.0476,3.0472,3.0485,3.0436,3.0453,3.0432,3.0432,3.042,3.0421,3.0363,3.0414,3.0415,3.0415,3.0415,0,3.0618,3.0595,3.0594,3.0578,3.0552,3.0553,3.0527,3.0521,3.051,3.0491,3.0496,3.0478,3.0475,3.0456,3.0452,3.0423,3.0418,3.0414,3.0413,3.0413,3.0413,3.0404,3.0406,3.0413,3.0413,3.0414,3.0414,0,3.0575,3.0574,3.0546,3.0537,3.0534,3.0515,3.0505,3.0489,3.0485,3.0462,3.0456,3.0449,3.0427,3.0422,3.0395,3.0392,3.0357,3.0359,3.0362,3.0362,3.0341,3.0342,3.0274,3.0264,3.0323,3.0323,3.0322,0,3.0546,3.0529,3.0518,3.0507,3.05,3.0482,3.0471,3.0472,3.0459,3.0443,3.0428,3.0407,3.039,3.0353,3.0344,3.0323,3.0324,3.0302,3.0321,3.0321,3.0323,3.0323,3.0321,3.0298,3.0297,3.0297,3.0296,0,3.0495,3.0495,3.048,3.0464,3.0451,3.0438,3.0426,3.0416,3.0414,3.04,3.0379,3.0365,3.0339,3.0317,3.0296,3.0287,3.029,3.0291,3.0284,3.0283,3.0285,3.0283,3.0351,3.0292,3.0292,3.0292,3.0293,3.0293,3.0457,3.0442,3.0432,3.0414,3.0406,3.0394,3.0378,3.0373,3.0356,3.0336,3.0337,3.0313,3.0298,3.0271,3.0261,3.0241,3.0247,3.0239,3.0236,3.0234,3.0231,3.029,3.0237,3.0237,3.0237,3.0237,3.0237,0,3.0405,3.0399,3.0383,3.0367,3.0353,3.036,3.0347,3.0334,3.0313,3.0301,3.0285,3.0259,3.0238,3.0228,3.0207,3.0193,3.0194,3.0187,3.0187,3.0185,3.0227,3.0234,3.0186,3.0186,3.0186,3.0186,3.0186,3.0186,3.0376,3.035,3.035,3.0319,3.0313,3.0292,3.0283,3.0272,3.0262,3.0234,3.0218,3.0212,3.02,3.0178,3.0159,3.0156,3.0147,3.0139,3.0137,3.0177,3.0182,3.0187,3.0194,3.0138,3.0138,3.0097,3.0096,3.0096]}]]